Hourly Weather Roundup
Issued by NWS Central Illinois

Home | Current Version | Previous Version | Text Only | Print | Product List | Glossary On
Versions: 1 2 3 4 5 6 7 8 9 10 11 12 13 14 15 16 17 18 19 20 21 22 23 24 25 26 27 28 29 30 31 32 33 34 35 36 37 38 39 40 41 42 43 44 45 46 47 48 49 50
000
NZUS43 KILX 271210
HWRILX

AREA WEATHER ROUNDUP
NATIONAL WEATHER SERVICE, LINCOLN IL
700 AM CDT FRI MAY 27 2016


CITY           SKY/WX    TMP DP  RH WIND       PRES   REMARKS
BLOOMINGTON    CLOUDY    67  67 100 S12       29.93R
6HR MIN TEMP:  66; 6HR MAX TEMP:  69;

CHAMPAIGN      CLOUDY    66  63  90 S10       29.95R
6HR MIN TEMP:  64; 6HR MAX TEMP:  67;

DANVILLE       CLOUDY    66  64  91 S6        29.94R
6HR MIN TEMP:  64; 6HR MAX TEMP:  66;

DECATUR        PTSUNNY   68  64  87 S7        29.94R
6HR MIN TEMP:  66; 6HR MAX TEMP:  70; 6HR PCP: TRACE;

EFFINGHAM      CLOUDY    66  66 100 SE8       29.96S
FLORA          CLOUDY    66  65  95 CALM      29.96S
6HR MIN TEMP:  65; 6HR MAX TEMP:  68;

GALESBURG      CLOUDY    64  63  96 SE6       29.86S
JACKSONVILLE   LGT RAIN  67  65  93 S6        29.88S
6HR MIN TEMP:  66; 6HR MAX TEMP:  70; 6HR PCP:  0.05;

LACON          CLOUDY    67  64  87 S5        29.89R
6HR MIN TEMP:  67; 6HR MAX TEMP:  72;

LAWRENCEVILLE  CLOUDY    67  65  93 SE5       29.97S
6HR MIN TEMP:  66; 6HR MAX TEMP:  67;

LITCHFIELD     CLOUDY    65  63  91 S10       29.91S
$$


CITY           SKY/WX    TMP DP  RH WIND       PRES   REMARKS
LINCOLN        CLOUDY    68  66  93 S6        29.91F
6HR MIN TEMP:  67; 6HR MAX TEMP:  70;

MACOMB         CLOUDY    65  64  94 SE8       29.87S
MATTOON        MOSUNNY   66  62  87 SE9       29.95R
6HR MIN TEMP:  65; 6HR MAX TEMP:  67;

MT CARMEL AP   PTSUNNY   66  64  93 SE8       29.97S
6HR MIN TEMP:  64; 6HR MAX TEMP:  66; 6HR PCP:  0.01;

OLNEY-NOBLE AP CLOUDY    64  64 100 SE3       29.96S
PARIS          CLOUDY    66  65  95 SE5       29.97S
6HR MIN TEMP:  64; 6HR MAX TEMP:  66;

PEORIA         CLOUDY    69  64  84 S8        29.89R
6HR MIN TEMP:  66; 6HR MAX TEMP:  72; 6HR PCP: TRACE;

PONTIAC        CLOUDY    69  66  91 S8        29.92R
RANTOUL        CLOUDY    67  65  93 S10       29.94S
6HR MIN TEMP:  65; 6HR MAX TEMP:  68;

ROBINSON       CLOUDY    65  64  96 CALM      29.97F
6HR MIN TEMP:  64; 6HR MAX TEMP:  65;

SPRINGFIELD    CLOUDY    69  65  86 SE8       29.90F
6HR MIN TEMP:  68; 6HR MAX TEMP:  71; 6HR PCP: TRACE;

TAYLORVILLE    CLOUDY    66  64  95 SE6       29.93R
$$

...REGIONAL REPORTS...


CITY           SKY/WX    TMP DP  RH WIND       PRES   REMARKS
CHICAGO O`HARE CLOUDY    68  64  87 S7        29.88R
KANKAKEE       CLOUDY    67  63  86 S10       29.93R
MOLINE         CLOUDY    66  61  84 S12       29.82S
MOUNT STERLING RAIN      66  64  94 S12G21    29.85S
MOUNT VERNON   CLOUDY    64  61  88 E3        29.96S
PITTSFIELD     RAIN      68  66  94 S15G22    29.87F
QUINCY         CLOUDY    67  64  90 S15G25    29.84R
ROCKFORD       CLOUDY    69  63  81 SE3       29.87R
$$


CITY           SKY/WX    TMP DP  RH WIND       PRES   REMARKS
BURLINGTON     PTSUNNY   65  64  97 SE10      29.81F
CEDAR RAPIDS   CLOUDY    63  62  97 CALM      29.82R
DES MOINES     CLOUDY    64  60  87 E7        29.76F
KIRKSVILLE     LGT RAIN  66  64  93 SE15      29.79S
OTTUMWA        CLOUDY    63  61  93 E3        29.78F
ST LOUIS       CLOUDY    70  64  83 S10       29.89S
$$


CITY           SKY/WX    TMP DP  RH WIND       PRES   REMARKS
TERRE HAUTE    CLOUDY    67  63  87 S5        29.97F
EVANSVILLE     CLOUDY    67  63  87 SE6       29.98S
INDIANAPOLIS   PTSUNNY   66  63  90 S7        29.99R
LAFAYETTE      PTSUNNY   66  62  87 S7        29.96S
MADISON        PTSUNNY   66  62  87 SW7       29.85R
MILWAUKEE      PTSUNNY   70  66  87 S7        29.87R
$$






USA.gov is the U.S. government's official web portal to all federal, state and local government web resources and services.